Regional Weather Roundup
Issued by NWS

Home | Current Version | Previous Version | Graphics & Text | Print | Product List | Glossary On
Versions: 1 2 3 4 5 6 7 8 9 10 11 12 13 14 15 16 17 18 19 20 21 22 23 24 25 26 27 28 29 30 31 32 33 34 35 36 37 38 39 40 41 42 43 44 45 46 47 48 49 50
000
ASUS43 KLOT 261409
RWRIL

ILLINOIS REGIONAL WEATHER ROUNDUP
NATIONAL WEATHER SERVICE CHICAGO/ROMEOVILLE IL
900 AM CDT FRI MAY 26 2017

NOTE: "FAIR" INDICATES FEW OR NO CLOUDS BELOW 12,000 FEET WITH NO
SIGNIFICANT WEATHER AND/OR OBSTRUCTIONS TO VISIBILITY.

* THESE STATIONS ARE NOT UNDER NWS QUALITY CONTROL. THEY ALSO MAY NOT
  REPORT WEATHER SUCH AS PRECIPITATION OR FOG.

ILZ001-002-007-009-015-016-024-261500-
NORTHWEST ILLINOIS

CITY           SKY/WX    TMP DP  RH WIND       PRES   REMARKS
MOLINE         CLOUDY    67  55  65 E13       29.73F
STERLING*      CLOUDY    64  57  78 SE12      29.81F
SAVANNA*       CLOUDY    65  57  75 SE9       29.79F
$$

ILZ003-004-008-010-011-017-018-261500-
NORTH CENTRAL ILLINOIS

CITY           SKY/WX    TMP DP  RH WIND       PRES   REMARKS
ROCKFORD       PTSUNNY   67  57  70 SE10      29.83F
FREEPORT*      MOSUNNY   64  55  75 SE12      29.83S
ROCHELLE*      MOSUNNY   64  57  78 SE14      29.83F
DE KALB*       SUNNY     64  57  80 SE8       29.86R
PERU*          MOSUNNY   63  56  77 SE9       29.85R
$$

ILZ005-006-012>014-019>023-261500-
NORTHEAST ILLINOIS

CITY           SKY/WX    TMP DP  RH WIND       PRES   REMARKS
CHICAGO-OHARE  PTSUNNY   64  53  67 SE7       29.86R
CHICAGO-MIDWAY PTSUNNY   65  53  65 SE7       29.87R
AURORA         SUNNY     66  58  75 SE9       29.86R
LANSING*       SUNNY     64  56  76 SE3       29.88S
JOLIET*        MOSUNNY   66  59  76 S9        29.88R
WAUKEGAN       MOSUNNY   56  53  90 E7        29.87R
DUPAGE AIRPORT SUNNY     65  59  81 S7        29.86R HAZE
KANKAKEE*      MOSUNNY   69  58  66 CALM      29.89R
WHEELING       SUNNY     62  54  74 E7        29.88R
MORRIS*        CLOUDY    64  56  75 CALM      29.86R
ROMEOVILLE*    SUNNY     65  60  84 SE6       29.87R
NORTHERLY ISL    N/A     57  52  83 E6          N/A
$$

LMZ740>746-261500-
SOUTHERN LAKE MICHIGAN

STATION/POSITION SKY/WX   TEMP    WIND        PRES    VSBY  WAVE
                          AIR SEA DIR/SP/G                  HT/PER
                          (F)     (DEG/KT/KT) (MB)    (MI)  (FT/S)
SOUTHERN BUOY              45 45   20/  8/ 10 1011.5          1/ 4
WILMETTE HARBOR            49 51                N/A           1/ 5
HARRISON CRIB              54     100/  7/  8   N/A
BURNHAM HARBOR             58      80/  5/  6   N/A
CALUMET HARBOR             59      60/  5/  5 1011.3R
BURNS HARBOR               59      50/  4/  6 1012.5R
MICHIGAN CITY              55      10/  2/  3   N/A
MICHIGAN CITY 6N           53 52  230/  2/  4   N/A           2/ 5
ST. JOSEPH                 53 55   CALM  /  2 1012.4          2/ 4
$$

ILZ025>027-034>036-040-047-049-050-058-095>099-261500-
WEST-CENTRAL ILLINOIS

CITY           SKY/WX    TMP DP  RH WIND       PRES   REMARKS
QUINCY         CLOUDY    64  59  83 SW13G28   29.74R
GALESBURG*     CLOUDY    63  55  77 E8        29.72F
MACOMB*        CLOUDY    62  56  82 E15       29.71F
JACKSONVILLE*  LGT RAIN  60  57  89 SE35      29.63F
PITTSFIELD*    CLOUDY    63  59  88 SW9       29.75R
$$

ILZ028>032-037-038-041>044-048-051>054-059>061-261500-
CENTRAL ILLINOIS

CITY           SKY/WX    TMP DP  RH WIND       PRES   REMARKS
PONTIAC        PTSUNNY   67  62  84 SE9       29.87S
BLOOMINGTON    PTSUNNY   65  57  75 SE15      29.87R
DECATUR        PTSUNNY   68  59  73 S8        29.86S
PEORIA         CLOUDY    65  56  72 SE12      29.80F
LACON*         MOSUNNY   67  58  73 SE14      29.82S
LINCOLN*       CLOUDY    67  59  74 S7        29.84F
SPRINGFIELD    LGT RAIN  65  58  78 E8        29.82F
TAYLORVILLE    CLOUDY    64  57  80 SE6       29.83F
$$

ILZ033-039-045-046-055>057-062-063-261500-
EAST-CENTRAL ILLINOIS

CITY           SKY/WX    TMP DP  RH WIND       PRES   REMARKS
CHAMPAIGN      CLOUDY    66  57  72 S10       29.90R
RANTOUL*       CLOUDY    67  61  80 SE7       29.90R
MATTOON        SUNNY     68  60  75 S8        29.89R
$$

ILZ079-100>102-261500-
SOUTHWEST ILLINOIS

CITY           SKY/WX    TMP DP  RH WIND       PRES   REMARKS
ALTON          PTSUNNY   64  57  77 E12       29.75F
BELLEVILLE     CLOUDY    67  60  78 SE10      29.81F
CAHOKIA*       CLOUDY    69  59  70 S8        29.80R
SPARTA*        CLOUDY    66  58  76 S14G20    29.80F
$$

ILZ064>066-069>071-074>076-080>082-084>086-088>090-092>094-261500-
SOUTH-CENTRAL ILLINOIS

CITY           SKY/WX    TMP DP  RH WIND       PRES   REMARKS
CARBONDALE     CLOUDY    69  61  75 S12       29.87S
CAIRO*         CLOUDY    72  61  68 S6        29.91R
EFFINGHAM*     CLOUDY    66  60  80 E6        29.90F
MARION         CLOUDY   N/A N/A N/A S7        29.89R
MT. VERNON       N/A     69  59  70 S7        29.86F
CENTRALIA*     CLOUDY    69  61  77 SE8       29.82F
SALEM*         MOSUNNY   68  58  70 SE6       29.84F
METROPOLIS*    PTSUNNY   71  60  67 SW7       29.93R
$$

ILZ067-068-072-073-078-083-087-091-261500-
SOUTHEAST ILLINOIS

CITY           SKY/WX    TMP DP  RH WIND       PRES   REMARKS
LAWRENCEVILLE  CLOUDY    68  59  73 S7        29.92R
FLORA*         CLOUDY    69  59  70 S6        29.89S
FAIRFIELD*     MOSUNNY   67  58  73 SE3       29.88S
HARRISBURG*    CLOUDY    71  60  67 S7        29.90S
ROBINSON*      SUNNY     67  59  77 S8        29.92R
CARMI*         CLOUDY    67  58  72 S8        29.90R
$$

ABBREVIATIONS USED IN REMARKS
   TC - TEMPERATURE IN CELSIUS
  WCI - WIND CHILL INDEX
   HX - HEAT INDEX
  VSB - VISIBILITY
$$




USA.gov is the U.S. government's official web portal to all federal, state and local government web resources and services.